AirNav   Pilot Hours Calculator
 
 546 users online  

2N6 Redwing Airport
Jobstown, New Jersey, USA

GOING TO JOBSTOWN?


FAA INFORMATION EFFECTIVE 26 JANUARY 2023

Location

FAA Identifier: 2N6
Lat/Long: 40-01-37.5000N 074-41-27.2000W
40-01.625000N 074-41.453333W
40.0270833,-74.6908889
(estimated)
Elevation: 78 ft. / 24 m (estimated)
Variation: 12W (1985)
From city: 1 mile S of JOBSTOWN, NJ
Time zone: UTC -5 (UTC -4 during Daylight Saving Time)
Zip code: 08041

Airport Operations

Airport use: Open to the public
Activation date: 03/1960
Control tower: no
ARTCC: NEW YORK CENTER
FSS: MILLVILLE FLIGHT SERVICE STATION
NOTAMs facility: MIV (NOTAM-D service available)
Attendance: IREG
Wind indicator: yes
Segmented circle: no

Airport Communications

CTAF: 122.9
WX ASOS at VAY (9 nm SW): 119.325 (609-267-1176)
WX ASOS at PNE (15 nm W): PHONE 215-677-0146
WX ASOS at TTN (16 nm N): 126.775 (609-538-8690)
WX AWOS-3PT at MJX (19 nm E): 119.875 (732-797-2542)

Nearby radio navigation aids

VOR radial/distance  VOR name  Freq  Var
GXUr296/4.5MC GUIRE VORTAC110.6012W
RBVr231/13.8ROBBINSVILLE VORTAC113.8010W
ARDr154/16.8YARDLEY VOR/DME108.2010W
CYNr327/17.3COYLE VORTAC113.4010W
COLr246/29.7COLTS NECK VOR/DME115.4011W
VCNr033/32.0CEDAR LAKE VOR/DME115.2010W
SBJr186/33.4SOLBERG VOR/DME112.9010W
ACYr001/34.7ATLANTIC CITY VORTAC108.6010W
OODr060/36.7WOODSTOWN VORTAC112.8010W

 
NDB name  Hdg/Dist  Freq  Var  ID
LAKEHURST277/16.439611WNEL -. . .-..

Airport Services

Parking: tiedowns
Airframe service: MINOR
Powerplant service: MINOR
Bottled oxygen: NONE
Bulk oxygen: NONE

Runway Information

Runway 6/24

Dimensions: 1830 x 50 ft. / 558 x 15 m
Surface: turf, in fair condition
RUNWAY 6  RUNWAY 24
Traffic pattern: leftleft
Obstructions: 56 ft. trees, 725 ft. from runway, 155 ft. left of centerline, 12:1 slope to clear
RY 06 FIRST HALF, TREES WITHIN 90 FT OF CTLN.
15 ft. road
RWY 24 ADDTNL OBSTRS, +35 TO +62 FT TREES, DIST 320-400 FT, 80-120 FT L.

Runway 11/29

Dimensions: 1590 x 70 ft. / 485 x 21 m
Surface: turf, in fair condition
Runway edge lights: non-standard
RUNWAY 11  RUNWAY 29
Latitude: 40-01.645168N40-01.606395N
Longitude: 074-41.622142W074-41.285158W
Elevation: 73.0 ft.78.0 ft.
Traffic pattern: rightleft
Runway heading: 111 magnetic, 099 true291 magnetic, 279 true
Obstructions: 38 ft. trees, 10 ft. from runway, 100 ft. left of centerline63 ft. tree, 1500 ft. from runway, 23:1 slope to clear

Airport Ownership and Management from official FAA records

Ownership: Privately-owned
Owner: CENTRAL JERSEY R.W. INC
3 BARBARA DRIVE
CROSSWICKS, NJ 08515
Phone 609-915-2870
Manager: ERIKA PEARSON
3 BRIARDALE COURT
COLUMBUS, NJ 08022
Phone 609-915-1280

Airport Operational Statistics

Aircraft based on the field: 4
Single engine airplanes: 3
Helicopters: 1
    
Aircraft operations: avg 58/week *
79% local general aviation
21% transient general aviation
* for 12-month period ending 31 October 2022

Additional Remarks

NSTD LTG RWY 11/29 OTS INDEFLY.
FOR CD CTC MC GUIRE APCH AT 609-754-2767.
DEER & BIRDS ON & INVOF ARPT.
TSNT ACFT CALL 609-915-2870 FOR GATE ACES.

Instrument Procedures

There are no published instrument procedures at 2N6.

Some nearby airports with instrument procedures:

KWRI - McGuire Field (Joint Base Mc Guire Dix Lakehurst) Airport (5 nm E)
N14 - Flying W Airport (8 nm SW)
KVAY - South Jersey Regional Airport (9 nm SW)
N87 - Trenton-Robbinsville Airport (12 nm N)
KPNE - Northeast Philadelphia Airport (15 nm W)
KNEL - Lakehurst Maxfield Field Airport (16 nm E)
KTTN - Trenton Mercer Airport (16 nm N)
19N - Camden County Airport (19 nm SW)
KMJX - Ocean County Airport (19 nm E)
 
Loc | Ops | Rwys | IFR | FBO | Links
Com | Nav | Svcs | Stats | Notes
Area around 2N6 (Redwing Airport)
 
Road maps at: MapQuest Bing Google
 
Aerial photo
WARNING: Photo may not be current or correct
Aerial photo of 2N6 (Redwing Airport)
Looking north.

Do you have a better or more recent aerial photo of Redwing Airport that you would like to share? If so, please send us your photo.

 
Sectional chart

 
Airport distance calculator
Flying to Redwing Airport? Find the distance to fly.

From to 2N6

Sunrise and sunset
Times for 03-Feb-2023
 Local
(UTC-5)
 Zulu
(UTC)
Morning civil twilight06:3811:38
Sunrise07:0612:06
Sunset17:1922:19
Evening civil twilight17:4722:47

Current date and time
Zulu (UTC)  03-Feb-2023 07:50:29
Local (UTC-5)  03-Feb-2023 02:50:29
 
METAR
KWRI 
5nm E 
030655Z AUTO 25006KT 10SM CLR 00/M02 A2982 RMK AO2 SLP099 T00031016 $
KVAY 
9nm SW 
ASOS 119.325 609-267-1176
030654Z AUTO 24004KT 9SM CLR 01/M02 A2984 RMK AO2 SLP106 T00111017
KPNE 
15nm W 
030654Z 24008KT 10SM CLR 01/M04 A2985 RMK AO2 SLP107 T00111039
KTTN 
16nm N 
ASOS 133.70 609-538-8690
030653Z AUTO 24006KT 10SM CLR 00/M04 A2981 RMK AO2 SLP092 T00001044
KNEL 
16nm E 
030700Z AUTO 24004KT CLR M01/M03 A2981 RMK AO2 SLP095 T10061033 $
KMJX 
19nm E 
AWOS-3 119.875 732-244-4450
201556Z AUTO 28016G22KT 10SM BKN045 09/02 A2970 RMK AO2 SLP062 T00940017 TSNO
TAF
KWRI 
5nm E 
030200Z 0302/0408 23008KT 9999 BKN250 QNH2985INS BECMG 0305/0306 25007KT 9999 SCT080 BKN200 QNH2983INS BECMG 0309/0310 32015G25KT 9999 SCT040 QNH2990INS BECMG 0314/0315 31020G30KT 9999 FEW250 QNH3002INS TEMPO 0318/0322 31022G35KT BECMG 0322/0323 30015G25KT 9999 SKC QNH3035INS TX00/0302Z TNM10/0402Z
KPNE 
15nm W 
030534Z 0306/0406 24012KT P6SM BKN200 FM030900 31014G24KT P6SM SCT035 BKN200 FM031400 32018G28KT P6SM SCT050
KTTN 
16nm N 
030534Z 0306/0406 24005KT P6SM BKN200 FM030900 31014G23KT P6SM SCT035 BKN200 FM031500 32019G28KT P6SM SCT045
NOTAMs
Click for the latest NOTAMs
NOTAMs are issued by the DoD/FAA and will open in a separate window not controlled by AirNav.

 

 
 

Would you like to see your business listed on this page?

 If your business provides an interesting product or service to pilots, flight crews, aircraft, or users of the Redwing Airport, you should consider listing it here.  To start the listing process, click on the button below
 
Add a business
 

Other Pages about Redwing Airport

Update a link
 
Copyright © AirNav, LLC. All rights reserved. Privacy Policy  Contact